Date String (YYYY-MM-DD hh:mm:ss) UTC,Instrument flags,Ambient pressure (hPa),Sample flow (lpm),Bypass flow (lpm),Sample temperature (°C),Ambient temperature (°C),ASC tube jacket temperature (°C),LED temperature (°C),Box temperature (°C),Sample RH (%),Span deviation,Mass concentration (μg/m³),Mass concentration (μg/m³),Mass concentration (μg/m³)
DateTimeUTC,F1_M11,P_M11,Q1_M11,Q2_M11,T1_M11,T2_M11,T3_M11,T4_M11,T5_M11,U1_M11,ZSPAN_M11,X0_M11,X2_M11,X1_M11
2021-09-22 10:00:00,,0836.8,5.00,0.00,27.9,26.7,00.0,37.1,29.6,11.3,0000.0,0004.67,0002.29,0001.83
2021-09-22 10:01:00,,0836.7,5.00,0.00,27.9,26.8,00.0,37.1,29.6,11.3,0000.0,0004.59,0002.29,0001.84
2021-09-22 10:02:00,,0836.7,5.02,0.00,27.9,26.7,00.0,37.1,29.6,11.3,0000.0,0004.77,0002.34,0001.85
2021-09-22 10:03:00,,0836.7,5.00,0.00,27.9,26.7,00.0,37.1,29.5,11.3,0000.0,0004.82,0002.36,0001.86
2021-09-22 10:04:00,,0836.7,5.00,0.00,27.9,26.7,00.0,37.1,29.5,11.1,0000.0,0004.18,0002.35,0001.85
2021-09-22 10:05:00,,0836.7,5.00,0.00,27.9,26.7,00.0,37.1,29.6,11.1,0000.0,0003.89,0002.34,0001.84
2021-09-22 10:06:00,,0836.7,5.01,0.00,27.9,26.7,00.0,37.1,29.5,11.2,0000.0,0003.84,0002.35,0001.84
2021-09-22 10:07:00,,0836.7,4.99,0.00,27.9,26.7,00.0,37.1,29.6,11.2,0000.0,0003.89,0002.37,0001.84
2021-09-22 10:08:00,,0836.7,5.01,0.00,27.8,26.7,00.0,37.1,29.6,11.2,0000.0,0004.01,0002.40,0001.85
2021-09-22 10:09:00,,0836.7,4.99,0.00,27.8,26.7,00.0,37.1,29.6,11.2,0000.0,0003.95,0002.37,0001.83
2021-09-22 10:10:00,,0836.7,4.99,0.00,27.8,26.7,00.0,37.0,29.6,11.2,0000.0,0003.79,0002.32,0001.81
2021-09-22 10:11:00,,0836.7,5.02,0.00,27.8,26.7,00.0,37.0,29.6,11.2,0000.0,0003.80,0002.33,0001.81
2021-09-22 10:12:00,,0836.6,5.01,0.00,27.8,26.7,00.0,37.0,29.6,11.2,0000.0,0003.94,0002.40,0001.81
2021-09-22 10:13:00,,0836.7,5.00,0.00,27.8,26.7,00.0,37.0,29.5,11.3,0000.0,0004.04,0002.42,0001.81
2021-09-22 10:14:00,,0836.7,5.00,0.00,27.8,26.6,00.0,37.0,29.5,11.3,0000.0,0004.32,0002.41,0001.81
2021-09-22 10:15:00,,0836.7,5.01,0.00,27.8,26.6,00.0,37.0,29.6,11.3,0000.0,0004.35,0002.42,0001.83
2021-09-22 10:16:00,,0836.7,5.01,0.00,27.8,26.6,00.0,37.0,29.5,11.3,0000.0,0004.31,0002.41,0001.84
2021-09-22 10:17:00,,0836.8,4.99,0.00,27.8,26.6,00.0,37.0,29.5,11.3,0000.0,0004.28,0002.40,0001.84
2021-09-22 10:18:00,,0836.8,5.01,0.00,27.8,26.6,00.0,37.0,29.5,11.3,0000.0,0004.33,0002.40,0001.84
2021-09-22 10:19:00,,0836.7,5.00,0.00,27.8,26.6,00.0,37.0,29.5,11.3,0000.0,0004.21,0002.36,0001.83
2021-09-22 10:20:00,,0836.7,5.00,0.00,27.8,26.6,00.0,37.0,29.5,11.3,0000.0,0004.92,0002.35,0001.83
2021-09-22 10:21:00,,0836.7,5.00,0.00,27.8,26.6,00.0,37.0,29.5,11.3,0000.0,0005.83,0002.33,0001.83
2021-09-22 10:22:00,,0836.7,5.00,0.00,27.8,26.6,00.0,37.0,29.5,11.3,0000.0,0006.31,0002.30,0001.83
2021-09-22 10:23:00,,0836.7,4.99,0.00,27.8,26.7,00.0,37.0,29.5,11.2,0000.0,0006.19,0002.23,0001.82
2021-09-22 10:24:00,,0836.7,4.99,0.00,27.8,26.6,00.0,37.0,29.5,11.2,0000.0,0006.08,0002.23,0001.81
2021-09-22 10:25:00,,0836.7,5.01,0.00,27.8,26.6,00.0,37.0,29.5,11.2,0000.0,0005.78,0002.23,0001.81
2021-09-22 10:26:00,,0836.7,5.01,0.00,27.8,26.6,00.0,37.0,29.5,11.2,0000.0,0005.77,0002.21,0001.80
2021-09-22 10:27:00,,0836.7,4.99,0.00,27.8,26.7,00.0,37.0,29.5,11.2,0000.0,0005.83,0002.23,0001.80
2021-09-22 10:28:00,,0836.7,5.02,0.00,27.8,26.6,00.0,37.0,29.4,11.2,0000.0,0005.89,0002.26,0001.80
2021-09-22 10:29:00,,0836.7,5.00,0.00,27.7,26.6,00.0,37.0,29.4,11.3,0000.0,0005.77,0002.23,0001.80
2021-09-22 10:30:00,,0836.6,5.00,0.00,27.7,26.6,00.0,37.0,29.5,11.3,0000.0,0005.76,0002.23,0001.80
2021-09-22 10:31:00,,0836.7,4.99,0.00,27.8,26.6,00.0,36.9,29.5,11.3,0000.0,0005.17,0002.27,0001.80
2021-09-22 10:32:00,,0836.6,5.00,0.00,27.7,26.6,00.0,36.9,29.5,11.3,0000.0,0004.19,0002.30,0001.80
2021-09-22 10:33:00,,0836.6,5.00,0.00,27.7,26.6,00.0,36.9,29.5,11.2,0000.0,0003.53,0002.32,0001.79
2021-09-22 10:34:00,,0836.6,4.99,0.00,27.7,26.6,00.0,36.9,29.5,11.2,0000.0,0003.49,0002.31,0001.80
2021-09-22 10:35:00,,0836.6,5.00,0.00,27.7,26.6,00.0,36.9,29.4,11.2,0000.0,0003.44,0002.27,0001.79
2021-09-22 10:36:00,,0836.6,5.00,0.00,27.7,26.7,00.0,36.9,29.5,11.2,0000.0,0003.51,0002.24,0001.77
2021-09-22 10:37:00,,0836.6,5.01,0.00,27.7,26.7,00.0,36.9,29.5,11.1,0000.0,0003.50,0002.22,0001.76
2021-09-22 10:38:00,,0836.6,4.98,0.00,27.7,26.7,00.0,36.9,29.5,11.1,0000.0,0003.71,0002.24,0001.75
2021-09-22 10:39:00,,0836.6,5.00,0.00,27.7,26.6,00.0,36.9,29.4,11.1,0000.0,0004.14,0002.23,0001.73
2021-09-22 10:40:00,,0836.6,5.00,0.00,27.7,26.6,00.0,36.9,29.4,11.1,0000.0,0004.33,0002.30,0001.73
2021-09-22 10:41:00,,0836.6,5.00,0.00,27.7,26.6,00.0,36.9,29.4,11.2,0000.0,0005.09,0002.29,0001.73
2021-09-22 10:42:00,,0836.6,5.00,0.00,27.7,26.7,00.0,36.9,29.5,11.1,0000.0,0005.37,0002.28,0001.72
2021-09-22 10:43:00,,0836.6,5.02,0.00,27.7,26.6,00.0,36.9,29.4,11.0,0000.0,0005.48,0002.25,0001.71
2021-09-22 10:44:00,,0836.6,4.99,0.00,27.7,26.6,00.0,36.9,29.4,11.1,0000.0,0005.42,0002.24,0001.70
2021-09-22 10:45:00,,0836.6,4.98,0.00,27.7,26.5,00.0,36.9,29.4,11.1,0000.0,0005.61,0002.28,0001.69
2021-09-22 10:46:00,,0836.6,5.01,0.00,27.7,26.6,00.0,36.9,29.4,11.2,0000.0,0005.72,0002.30,0001.69
2021-09-22 10:47:00,,0836.6,4.99,0.00,27.7,26.6,00.0,36.9,29.4,11.2,0000.0,0006.13,0002.35,0001.70
2021-09-22 10:48:00,,0836.6,5.00,0.00,27.7,26.6,00.0,36.9,29.4,11.2,0000.0,0006.82,0002.36,0001.71
2021-09-22 10:49:00,,0836.6,4.99,0.00,27.7,26.6,00.0,36.9,29.4,11.2,0000.0,0006.91,0002.31,0001.71
2021-09-22 10:50:00,,0836.6,4.98,0.00,27.7,26.5,00.0,36.9,29.4,11.2,0000.0,0006.57,0002.30,0001.71
2021-09-22 10:51:00,,0836.5,5.00,0.00,27.7,26.5,00.0,36.8,29.4,11.2,0000.0,0006.57,0002.27,0001.71
2021-09-22 10:52:00,,0836.6,5.01,0.00,27.6,26.6,00.0,36.9,29.4,11.3,0000.0,0005.87,0002.29,0001.71
2021-09-22 10:53:00,,0836.6,5.00,0.00,27.6,26.6,00.0,36.9,29.4,11.3,0000.0,0005.63,0002.29,0001.72
2021-09-22 10:54:00,,0836.5,4.99,0.00,27.6,26.6,00.0,36.8,29.4,11.3,0000.0,0005.53,0002.32,0001.73
2021-09-22 10:55:00,,0836.6,5.02,0.00,27.6,26.6,00.0,36.8,29.4,11.3,0000.0,0005.64,0002.31,0001.74
2021-09-22 10:56:00,,0836.6,5.00,0.00,27.6,26.6,00.0,36.8,29.4,11.3,0000.0,0005.61,0002.31,0001.76
2021-09-22 10:57:00,,0836.6,5.00,0.00,27.6,26.6,00.0,36.8,29.4,11.3,0000.0,0005.77,0002.30,0001.77
2021-09-22 10:58:00,,0836.6,4.99,0.00,27.6,26.6,00.0,36.8,29.4,11.3,0000.0,0005.32,0002.27,0001.78
2021-09-22 10:59:00,,0836.6,5.00,0.00,27.6,26.6,00.0,36.8,29.4,11.1,0000.0,0004.68,0002.29,0001.76
